Theta_e
326 329 328 328 329 329 328 328 327 328 328 327 325 323 325 328 321 320 334 337 328 330 334 339 341 342 341 342 339 340 342 345 346 345 346 350 352 354 355 355 355 356 355 353 351 350 351 350 349 348 347 346 346 345 346 345 344 345 346 346 347 346 346 347 347 348 348 347 346 347 348 350 350 350 351 352 352 352 352 351 350 350 351 351 352 351 351
326 328 327 328 329 327 328 328 328 329 330 327 327 327 328 329 325 325 332 331 330 333 332 335 342 344 342 343 340 338 341 345 345 346 347 350 353 355 356 355 355 357 356 353 352 352 351 350 349 348 346 346 344 343 344 344 343 346 345 345 346 347 346 347 347 347 348 347 347 347 348 349 349 349 349 350 350 350 350 351 351 351 351 351 351 351 351
323 327 328 328 329 327 325 325 328 328 328 328 328 328 329 329 328 329 331 328 328 334 336 338 343 345 345 345 343 341 345 347 347 347 350 353 354 355 355 355 356 357 356 354 353 352 351 349 349 348 346 346 345 344 344 344 344 345 344 345 346 346 347 347 347 347 346 345 345 345 346 347 347 348 349 349 349 349 349 350 350 350 351 351 352 352 353
320 325 328 327 328 328 323 324 326 327 327 325 328 328 329 328 328 328 326 325 327 335 338 341 344 345 343 343 345 345 346 348 349 351 353 353 355 355 354 354 356 357 356 355 353 353 352 350 349 348 347 346 345 345 344 344 344 344 344 345 346 346 346 346 345 346 345 344 344 343 343 343 342 343 344 344 346 347 348 349 350 350 350 351 352 351 352
320 325 327 327 326 323 321 323 326 328 328 328 327 328 330 330 330 328 325 325 333 340 339 338 343 342 341 342 344 345 349 350 350 352 353 352 353 354 352 353 356 357 356 354 354 352 351 350 349 348 347 346 345 345 344 344 344 343 343 345 345 344 344 344 343 344 343 343 343 342 342 340 338 337 337 337 339 340 342 345 347 347 349 350 350 350 350
321 325 326 324 322 319 322 327 329 329 329 328 328 328 329 330 328 329 329 332 339 338 334 336 340 338 340 342 339 341 348 348 348 351 352 350 350 352 352 353 355 357 356 355 354 352 350 349 349 348 347 346 345 345 343 342 342 343 343 342 343 343 343 342 342 341 341 341 341 341 341 339 338 337 337 336 336 337 338 339 340 342 345 348 350 350 350
323 325 325 321 318 322 327 330 331 331 329 329 329 329 331 332 331 336 340 338 338 336 333 337 337 335 339 340 336 339 344 344 346 350 350 349 347 349 352 354 354 356 357 355 354 353 350 349 349 347 347 346 344 342 343 342 342 343 343 342 342 342 341 341 341 340 340 340 339 339 339 338 338 339 339 339 338 339 339 339 339 340 342 344 348 350 350
326 324 322 320 322 327 330 330 331 329 330 331 329 328 338 344 341 344 347 344 343 340 335 337 337 334 337 340 338 341 344 343 344 348 349 347 346 347 352 354 353 356 357 356 355 352 350 349 349 346 345 342 339 338 341 344 343 342 341 341 341 341 340 340 340 340 340 339 338 337 337 338 339 340 339 339 339 340 340 340 340 341 341 342 344 346 348
327 323 320 322 325 325 328 330 331 331 331 334 330 328 338 346 343 342 348 350 349 345 338 340 339 335 338 341 340 344 346 344 344 346 345 343 344 348 351 354 355 356 355 356 355 352 350 350 348 345 341 337 336 336 338 342 343 341 341 341 341 341 340 339 339 339 338 337 336 337 337 337 338 338 338 338 338 338 338 339 339 339 340 342 343 343 345
327 323 322 324 322 322 326 328 331 333 331 334 334 328 335 345 344 340 346 348 349 347 343 342 339 338 339 339 340 344 346 343 343 345 342 339 344 348 351 354 356 355 356 357 354 352 351 349 346 343 337 333 335 337 339 342 342 341 341 341 340 339 339 338 338 338 337 336 336 336 336 336 337 337 337 337 338 338 337 337 337 338 339 341 342 343 344
325 323 323 323 322 325 332 334 332 333 329 334 333 325 330 343 345 340 342 344 345 347 348 346 342 339 339 338 338 343 344 343 344 344 342 341 346 349 351 355 356 355 356 356 353 352 351 348 345 341 333 330 335 340 342 341 341 341 341 340 340 339 338 338 337 337 336 336 336 336 336 336 336 336 336 336 336 336 337 337 337 338 339 339 340 342 343
325 324 323 323 324 330 337 335 332 332 330 334 329 322 329 344 344 339 342 342 341 344 346 348 347 341 341 343 341 340 342 344 345 344 341 342 346 348 349 353 355 354 355 354 353 353 350 348 345 338 330 333 339 342 342 341 340 341 341 340 340 339 338 337 336 336 336 335 335 335 335 335 335 335 335 336 336 336 336 336 336 336 337 339 340 341 342
325 325 324 322 326 335 338 335 335 334 330 329 326 325 336 347 342 338 341 340 339 340 341 345 347 344 344 346 345 341 340 345 348 345 341 343 348 348 349 353 354 354 354 354 353 352 349 348 346 338 334 340 343 342 341 340 340 341 341 340 339 337 336 336 335 335 335 334 334 334 334 334 334 334 335 335 335 335 335 334 335 335 336 337 339 340 340
326 326 323 321 328 338 338 334 337 335 329 329 331 335 341 343 341 340 340 339 338 338 339 340 342 345 346 347 347 345 343 347 349 346 343 345 347 347 350 353 353 353 355 354 352 352 349 347 345 342 340 341 341 339 339 340 340 341 340 340 338 336 337 336 335 334 334 333 334 334 334 334 334 334 335 334 334 335 334 333 334 335 336 336 337 338 338
333 330 325 323 329 339 338 334 339 339 335 335 338 339 338 339 341 341 339 340 339 337 337 338 338 341 345 346 347 345 344 348 348 343 343 346 345 347 352 353 354 355 356 353 351 351 349 346 344 344 342 340 338 339 341 341 340 340 340 339 337 335 336 335 333 332 333 333 334 334 334 334 333 334 334 334 334 334 333 333 333 334 336 337 338 338 338
335 335 335 333 335 339 337 335 338 338 337 339 338 337 337 340 342 340 339 341 340 337 337 337 336 338 342 346 348 345 345 347 344 341 343 344 344 351 354 354 356 356 353 352 351 350 347 345 345 344 342 339 339 341 342 341 339 340 339 337 336 335 334 333 332 332 332 332 333 333 333 333 332 332 332 332 333 333 332 332 333 335 337 338 338 339 339
336 337 338 338 336 336 335 336 338 337 336 336 337 338 339 341 342 341 341 341 340 338 338 337 337 338 339 343 347 345 346 346 342 340 343 342 344 353 356 354 356 354 352 351 350 347 345 345 345 345 342 339 340 342 342 339 339 339 338 337 336 335 334 333 333 332 333 332 332 332 332 331 331 330 330 330 331 332 332 332 333 334 336 336 337 337 338
337 336 337 336 334 335 334 334 335 336 337 338 338 339 340 339 340 341 342 342 341 339 339 338 339 339 338 342 346 345 345 345 342 340 342 343 347 354 356 354 353 352 351 351 348 345 344 345 344 343 341 340 341 341 340 338 339 339 337 336 335 333 333 334 333 333 333 332 332 331 331 331 330 329 329 329 330 331 332 332 333 334 334 334 335 335 335
335 336 337 336 334 334 334 334 334 335 338 340 340 340 340 339 338 339 341 342 341 339 338 337 338 338 338 339 344 345 345 346 344 342 342 345 350 354 355 353 352 352 351 349 346 344 344 344 343 342 341 341 341 340 339 339 339 338 336 335 334 332 332 333 333 333 332 332 331 331 331 330 330 329 328 328 329 330 331 332 333 333 332 332 333 333 333
334 335 336 335 334 334 334 334 334 336 337 338 339 339 338 337 336 337 338 339 340 339 339 338 337 337 337 337 342 345 346 346 346 346 345 347 352 354 353 352 351 351 349 346 345 344 343 343 342 341 341 341 339 339 339 339 337 335 334 335 335 334 333 333 333 332 331 330 330 331 331 330 330 330 329 329 329 330 331 332 333 333 332 331 331 331 332
333 332 333 334 334 334 333 334 335 336 336 336 336 337 337 336 336 336 336 337 338 339 339 339 337 336 337 338 341 346 348 348 348 349 347 348 352 353 352 352 350 349 347 345 344 343 342 341 340 341 341 340 338 339 340 338 336 335 334 335 336 334 333 333 333 332 331 330 329 330 330 330 330 329 329 329 329 330 330 330 330 331 331 331 330 330 330
332 333 335 335 334 335 334 333 333 334 334 335 335 336 335 335 336 337 337 337 338 339 339 340 340 340 339 339 341 345 350 351 352 351 348 349 353 353 351 350 349 347 345 344 343 342 340 339 340 341 340 339 338 338 338 338 337 335 334 334 335 334 333 333 332 332 332 330 330 330 329 329 328 327 327 327 327 328 329 329 329 329 329 330 330 330 329
332 333 334 334 335 334 333 332 332 332 333 334 334 335 335 335 336 337 338 338 339 339 339 341 343 344 344 343 342 344 348 350 352 352 351 351 353 352 350 349 347 346 344 344 342 340 338 338 339 339 338 338 338 337 337 338 337 334 333 334 335 334 334 333 332 332 332 331 330 329 328 327 326 324 324 324 325 327 328 328 329 329 329 329 329 329 329
332 332 332 332 333 333 332 332 332 331 331 332 332 333 335 335 335 336 338 340 341 340 341 342 344 345 346 345 341 342 348 351 351 350 350 351 351 350 349 347 346 344 344 343 340 336 334 336 337 337 337 338 338 336 336 337 335 332 333 335 334 334 334 333 332 332 332 331 331 330 329 328 326 323 322 323 324 325 327 327 328 328 328 327 326 326 326
330 330 330 331 331 332 332 332 331 330 331 331 333 333 334 334 334 335 337 339 341 342 343 344 344 345 347 347 342 342 349 353 350 346 347 350 349 348 347 346 345 344 342 341 337 331 330 335 336 336 337 338 335 334 336 336 334 332 334 335 334 334 334 333 332 332 332 331 331 330 330 330 327 322 319 320 321 322 324 326 327 327 327 326 326 325 324
329 329 329 329 329 329 330 330 329 330 331 331 332 334 334 332 331 332 336 339 340 341 343 343 343 343 346 348 346 344 347 351 349 345 347 349 348 347 346 346 344 343 341 338 332 327 330 335 336 336 337 337 335 334 335 335 333 333 335 335 334 334 333 332 332 332 331 331 331 330 330 331 329 323 321 323 324 323 323 324 325 326 327 326 326 325 324
328 328 328 328 328 329 329 329 329 330 331 331 332 333 333 333 332 333 336 338 339 340 342 340 340 342 344 346 348 348 347 348 348 347 348 348 347 346 346 345 343 341 338 332 326 327 333 337 336 336 337 336 335 337 337 336 334 333 334 335 333 332 332 332 332 332 332 331 331 331 331 331 329 326 326 328 329 326 323 321 323 324 325 325 324 324 324
326 326 327 327 327 327 327 327 328 328 329 330 332 333 333 334 335 336 336 335 336 340 341 340 341 342 342 344 348 350 349 348 347 348 348 347 346 346 346 345 342 338 332 327 325 329 335 337 335 336 337 337 336 337 337 336 334 334 335 335 333 332 332 333 333 332 332 332 332 331 331 331 330 329 329 329 328 325 321 319 320 323 323 323 323 322 322
324 324 325 325 325 326 326 326 326 326 326 328 331 334 334 334 336 337 336 334 335 338 340 341 341 341 341 343 348 351 350 347 346 348 348 347 346 346 345 344 340 333 327 325 326 330 336 337 336 336 337 337 336 337 337 336 335 336 336 335 334 333 333 333 333 333 332 332 332 331 331 331 331 330 329 327 325 322 318 315 316 319 320 321 322 322 321
325 325 325 325 325 324 324 325 325 325 326 327 330 333 334 335 337 337 335 334 335 336 338 339 339 337 338 343 349 351 349 346 347 348 348 346 346 345 344 342 338 332 328 326 325 330 336 338 336 336 337 337 336 336 337 337 337 336 335 334 334 333 332 333 333 333 332 331 331 330 331 331 331 329 328 326 324 322 317 316 317 317 316 316 318 319 319
327 327 327 326 326 327 326 327 326 326 326 328 332 334 335 336 338 338 336 336 336 337 338 340 338 336 337 342 347 348 348 346 347 348 347 345 345 345 344 340 333 328 327 326 325 328 334 336 336 336 336 336 336 336 336 336 337 335 334 334 333 332 332 333 333 332 332 332 330 330 330 331 330 329 328 328 326 323 322 323 323 321 317 316 315 315 318
328 328 328 328 327 327 328 329 328 328 328 331 333 334 334 335 337 337 337 337 336 337 339 340 339 338 339 341 344 346 346 345 345 346 346 345 345 345 344 340 333 328 327 326 324 325 329 334 337 337 335 334 336 336 335 336 336 335 334 334 333 331 332 333 331 331 331 330 328 329 330 330 329 329 329 329 327 326 326 327 326 323 322 320 317 314 316
330 330 330 329 329 327 327 328 328 329 330 331 333 332 331 331 334 336 337 337 336 338 340 340 339 340 341 341 343 346 345 343 343 344 345 345 345 345 344 341 337 333 328 326 326 326 328 332 337 336 333 334 336 336 335 335 335 334 335 335 333 332 332 331 331 331 330 327 328 330 331 329 329 329 329 328 327 327 327 327 327 325 324 322 319 316 315
331 330 330 330 330 329 329 328 329 330 330 331 331 332 331 332 333 334 336 336 336 337 339 339 339 340 340 341 343 345 344 343 342 343 343 344 345 344 343 342 340 335 328 327 330 331 329 331 335 335 333 334 335 335 335 334 333 334 336 335 333 333 332 330 330 331 328 327 329 331 330 329 329 328 328 328 327 327 327 327 327 327 325 324 324 322 318
330 331 331 330 328 328 329 328 328 329 330 331 332 333 333 334 333 332 334 336 336 337 338 339 340 340 339 340 342 343 343 343 343 344 343 342 343 343 342 341 339 335 329 329 332 330 328 331 334 334 334 335 334 333 335 334 333 335 336 334 333 334 332 330 330 330 328 328 330 331 330 329 329 327 327 328 327 327 327 326 326 326 326 326 326 323 318
329 331 331 330 329 330 329 328 328 328 330 332 334 334 333 332 331 330 332 334 336 338 338 338 339 339 338 339 342 342 342 342 342 342 342 342 342 341 341 340 338 335 332 332 332 329 327 329 330 330 332 334 333 333 335 334 333 335 335 334 333 333 332 331 330 329 329 330 331 330 329 329 328 328 328 327 326 327 326 326 325 326 326 325 324 320 315
330 331 330 329 330 330 329 327 328 329 330 332 334 333 332 331 331 332 332 334 336 338 339 338 337 337 337 339 341 340 340 341 342 341 341 342 341 341 340 339 337 334 333 333 331 328 327 326 325 327 329 330 332 335 334 332 332 334 335 334 332 332 331 330 329 329 329 330 330 329 329 328 328 328 327 327 326 326 326 325 325 325 325 324 322 319 315
330 330 328 327 329 330 330 330 331 331 331 331 331 330 329 329 329 331 333 334 335 338 339 337 336 337 337 338 339 338 338 339 341 341 341 341 341 340 339 338 335 332 331 330 328 328 327 325 324 325 325 325 332 337 334 330 331 334 334 333 332 330 329 329 329 329 330 330 328 329 328 328 328 327 326 326 326 325 325 325 325 324 324 324 322 320 318
331 330 328 328 330 332 333 333 331 329 328 327 327 326 326 327 327 328 330 332 335 337 338 335 335 336 336 336 337 338 338 338 339 340 340 340 340 339 337 336 333 330 330 329 328 328 327 324 323 324 322 324 333 337 332 328 333 335 332 332 332 330 329 329 330 329 329 329 327 328 328 327 327 327 325 325 325 325 324 325 324 324 324 324 321 320 320
329 329 331 332 332 331 331 329 328 326 325 325 326 326 325 326 328 329 330 331 334 337 337 336 334 335 336 336 335 336 337 337 338 339 339 340 340 339 338 337 335 332 331 330 328 327 327 324 323 323 321 324 333 336 332 329 333 335 331 331 332 330 328 330 330 328 328 328 327 327 327 327 327 327 325 324 325 325 324 324 323 323 324 324 322 321 321
329 330 332 333 332 330 329 326 324 325 326 326 327 327 326 327 329 330 330 332 335 336 335 334 333 334 336 337 336 334 334 334 337 338 339 339 340 340 339 339 337 335 334 332 328 326 327 325 323 322 322 325 333 336 332 328 332 335 333 331 332 331 329 329 329 328 328 328 327 327 328 327 326 326 325 324 325 325 324 323 323 322 323 324 323 322 322
333 333 333 332 332 332 330 326 325 326 328 328 326 326 327 329 330 330 330 333 336 335 333 332 332 331 333 335 335 334 333 332 333 335 336 336 337 338 338 338 338 337 336 334 330 328 328 325 321 323 325 327 331 335 332 327 330 335 335 332 331 331 330 328 329 329 328 328 328 328 328 327 326 325 324 323 324 324 324 323 323 323 323 323 323 323 323
334 333 333 333 331 329 327 326 326 327 329 329 326 324 324 326 328 328 329 333 335 334 331 330 330 330 330 330 331 332 333 332 331 331 332 333 334 334 334 335 337 336 335 333 330 329 328 324 321 323 327 328 330 334 332 328 329 333 334 332 332 331 330 329 329 328 328 328 328 328 328 327 326 325 324 323 323 323 324 324 324 323 323 323 323 323 323
333 332 331 332 330 326 325 325 326 326 328 329 328 325 324 325 326 326 327 329 332 331 329 328 328 328 328 326 327 329 331 331 329 328 329 330 332 333 332 332 334 336 336 334 330 328 328 325 322 322 325 328 331 334 334 329 327 330 333 332 332 331 330 329 328 328 328 328 329 329 328 327 325 324 324 324 323 324 324 324 324 324 324 324 324 324 324
332 330 331 331 331 329 327 326 326 325 327 328 328 326 325 326 327 327 327 327 327 327 326 326 326 326 326 326 326 327 329 330 330 330 330 330 330 331 330 330 332 335 337 335 331 329 329 328 324 321 323 326 330 333 334 329 326 328 332 332 332 331 331 329 328 328 328 328 329 329 328 327 326 326 325 325 325 325 325 324 324 324 324 324 324 324 324
332 332 331 332 333 332 330 329 330 330 330 328 326 324 324 325 326 328 329 329 328 327 325 325 325 324 325 326 327 328 329 330 332 334 334 333 332 333 335 335 336 337 337 336 333 331 332 332 328 324 322 323 325 329 331 330 328 328 331 332 332 331 331 330 329 328 328 328 329 329 328 328 327 327 327 327 326 326 325 325 325 325 325 325 325 325 324
331 332 332 333 334 334 333 332 332 333 332 330 327 325 325 325 325 326 329 330 331 330 329 329 328 328 327 327 328 329 329 330 331 331 330 330 332 335 336 336 337 338 337 335 334 333 333 334 333 328 326 324 324 325 328 330 330 329 330 332 332 332 332 332 330 329 328 328 329 329 329 329 328 329 329 328 328 327 327 326 326 326 326 325 325 325 325
331 331 332 333 334 333 332 331 330 330 331 331 330 328 328 328 328 330 331 331 331 331 332 332 332 332 332 331 330 327 326 328 330 330 329 329 332 335 336 336 337 337 337 336 335 334 334 334 334 333 331 328 326 324 327 330 330 330 330 331 331 331 331 331 331 330 330 329 329 329 329 329 329 330 329 329 329 328 328 327 327 327 327 327 326 326 326
330 331 331 332 333 332 331 331 330 330 331 332 331 331 330 330 331 333 332 331 331 332 333 334 333 334 334 334 332 330 328 330 332 334 333 332 333 334 335 336 337 336 335 336 336 335 333 333 334 334 334 332 328 325 327 330 331 330 330 331 330 330 330 331 330 330 330 329 329 329 329 329 329 330 329 329 329 329 329 329 328 328 328 328 328 327 327
330 330 329 330 331 332 331 331 331 331 331 332 332 332 331 331 332 332 331 330 330 331 331 332 333 334 333 333 334 334 333 333 334 335 336 334 332 331 333 335 335 335 335 334 334 334 334 334 334 334 335 333 330 328 328 329 330 329 329 329 329 329 330 330 330 329 330 330 329 329 329 329 329 329 329 328 329 329 329 329 329 329 328 328 328 328 328
330 329 328 328 330 332 332 332 332 332 333 334 333 332 331 331 332 332 330 330 331 331 330 330 333 334 333 333 333 334 334 334 334 334 335 335 334 332 333 334 335 335 334 334 333 333 335 335 334 334 334 334 332 329 329 329 328 328 327 328 329 329 329 329 329 329 329 329 329 328 329 328 328 328 328 327 327 327 327 327 327 327 328 328 328 329 329
328 328 327 328 329 330 331 332 332 331 331 332 333 331 330 330 332 332 332 331 332 332 332 332 332 332 333 333 334 333 334 334 334 334 334 335 335 334 334 334 334 334 334 334 334 335 335 335 334 334 334 334 333 331 330 329 329 328 327 327 328 328 329 329 329 329 329 329 329 328 328 327 327 327 327 326 326 325 326 326 326 326 327 327 327 327 326
Wind_Speed
15 15 16 15 14 13 12 12 13 12 12 12 12 14 12 7 5 3 5 5 4 3 3 10 14 12 12 13 14 15 15 15 15 16 17 17 17 18 18 18 17 16 16 16 15 14 13 12 11 10 9 8 8 8 6 4 4 5 6 6 5 5 5 5 5 5 6 6 6 7 7 7 6 6 6 7 8 9 11 14 16 17 17 18 18 17 16
16 17 17 17 17 17 16 14 14 14 13 12 12 13 12 10 10 10 9 7 5 2 0 7 15 17 14 13 15 14 15 16 16 17 19 19 19 19 19 19 18 17 17 17 16 15 14 13 12 10 9 8 7 7 6 5 4 4 5 5 5 5 4 5 5 5 7 8 8 9 9 8 8 7 7 7 8 8 10 12 14 15 16 18 19 17 14
15 17 17 18 18 19 18 17 17 16 13 13 14 11 10 11 12 10 6 5 3 3 6 13 19 18 12 12 13 13 14 19 20 19 20 20 20 21 20 19 19 17 17 18 16 16 15 13 12 10 8 7 6 6 6 5 5 4 4 4 4 4 4 5 5 5 7 9 10 12 12 12 11 11 9 9 8 8 9 10 11 12 13 15 17 16 14
12 14 17 19 19 19 20 19 19 18 15 13 12 10 10 12 9 2 2 5 5 4 10 16 20 19 14 12 13 12 14 19 21 21 22 21 21 22 21 20 20 19 18 19 17 17 16 14 13 11 9 8 7 6 6 5 4 4 3 4 4 4 4 4 4 4 6 7 8 10 12 14 14 15 15 13 12 11 10 9 9 10 11 14 16 17 17
9 14 17 17 15 15 14 13 15 16 14 13 12 12 12 13 10 3 4 7 3 6 9 13 15 15 15 14 13 14 16 18 19 21 22 21 22 23 23 22 21 21 20 19 19 18 17 15 13 11 10 9 7 7 6 6 5 4 4 3 3 3 4 4 3 5 6 6 6 8 11 13 14 15 17 17 17 16 15 14 12 11 10 11 14 16 17
9 13 16 14 12 11 8 9 14 16 16 14 12 13 14 14 13 9 7 4 9 11 9 11 10 9 15 19 16 15 18 20 19 19 20 18 18 21 23 23 21 21 21 20 19 18 16 15 13 11 10 9 8 8 7 6 6 5 4 3 3 4 4 4 4 6 6 7 8 9 11 11 11 10 11 13 14 15 16 16 16 15 13 11 11 12 13
8 10 11 11 11 9 8 12 15 15 14 10 10 14 12 10 10 11 9 2 11 11 9 12 12 11 19 24 19 15 18 22 22 22 23 19 16 19 21 24 22 22 22 20 20 19 16 15 13 12 11 9 8 8 6 5 5 5 4 3 3 4 4 4 4 5 5 6 8 9 9 7 6 5 7 8 9 10 12 13 13 14 14 14 13 12 11
7 8 9 9 8 6 9 13 13 12 12 9 9 10 9 13 13 13 15 11 4 5 10 18 19 15 17 19 19 20 21 24 25 24 24 22 18 24 22 25 24 23 22 21 21 20 18 16 15 13 10 8 7 7 7 5 4 4 4 4 3 3 3 4 4 6 7 7 7 6 6 5 5 6 8 8 9 9 10 11 12 12 12 13 14 15 13
7 9 9 8 9 9 9 12 9 7 6 5 5 4 8 18 18 14 15 15 12 3 10 20 21 19 15 10 12 18 20 23 26 23 20 22 22 26 24 24 24 23 22 22 22 21 19 18 16 13 9 7 6 6 7 7 4 3 3 3 3 3 4 4 5 7 8 7 6 5 5 5 5 6 7 7 7 9 10 11 12 11 11 10 11 13 14
7 9 8 8 11 9 7 9 6 2 4 5 5 5 3 12 17 17 15 15 16 10 10 17 16 15 12 5 7 16 21 22 24 23 20 23 25 26 25 24 24 23 22 22 22 21 20 18 16 12 8 6 6 6 5 6 5 3 2 2 3 5 5 5 5 6 6 4 4 5 5 4 5 5 5 6 7 8 10 11 11 11 11 10 9 10 12
8 9 8 8 9 4 1 5 3 2 3 6 6 5 2 7 15 19 16 14 16 16 10 10 9 6 5 3 4 14 24 26 24 25 24 24 26 25 24 25 25 24 24 23 22 21 19 17 15 11 7 6 7 7 6 5 4 2 2 3 2 3 4 5 6 5 4 3 4 4 3 4 6 6 6 6 7 8 8 10 10 10 9 9 9 10 11
9 10 9 7 6 1 2 2 2 3 4 3 5 6 2 7 13 17 17 16 16 19 16 6 3 3 2 1 1 6 19 27 30 28 24 24 29 28 24 25 25 25 25 25 23 21 20 18 15 10 7 8 8 8 7 5 3 2 4 4 4 5 6 5 4 2 3 4 5 3 3 4 5 4 4 5 7 8 9 10 10 9 9 9 10 12 14
10 10 9 7 4 1 3 3 6 6 4 1 4 5 1 6 11 13 15 15 15 17 18 13 6 4 4 4 4 6 11 17 23 25 23 25 29 28 26 27 27 25 26 24 22 21 20 17 14 10 8 11 10 9 7 5 4 4 5 5 7 7 4 2 2 1 3 4 3 2 3 4 3 3 4 5 6 7 9 9 9 8 9 10 12 15 17
9 9 9 7 3 3 5 3 6 5 2 2 1 1 1 3 9 11 11 13 15 15 15 15 14 12 11 9 6 4 7 9 14 18 22 25 27 26 27 30 28 26 25 23 21 21 19 17 15 12 11 12 10 7 6 6 6 6 5 6 6 4 1 2 3 2 2 3 2 2 3 2 2 3 4 5 6 7 8 7 7 8 8 8 11 14 16
4 7 9 7 4 5 13 6 3 4 2 3 2 2 2 4 8 9 9 10 13 13 13 14 16 16 14 10 8 4 8 15 18 21 24 26 26 27 29 30 29 26 25 24 22 21 19 17 16 15 13 11 9 7 7 7 7 6 5 5 4 2 1 3 3 3 2 2 1 2 2 2 3 4 5 4 4 6 7 6 5 7 8 9 10 12 13
1 3 3 3 3 9 17 10 3 5 6 6 3 3 3 5 8 8 9 10 11 12 13 13 14 16 14 10 7 5 11 22 26 27 29 27 25 28 31 30 28 27 26 24 23 21 19 17 17 16 14 11 10 10 9 8 6 6 5 4 3 0 0 1 2 4 5 5 4 5 5 4 4 4 5 4 4 5 6 5 5 6 7 8 9 10 10
1 1 2 3 7 12 14 9 7 6 5 3 3 4 4 5 7 7 7 8 9 10 11 12 12 13 13 10 7 7 12 22 28 30 32 30 27 27 30 29 28 27 26 25 23 21 19 19 18 17 14 12 13 12 10 8 6 6 5 3 2 2 2 1 4 10 12 11 11 11 11 12 9 6 5 4 3 4 4 2 4 5 5 5 6 7 8
1 2 6 6 5 9 12 8 8 9 7 6 5 6 6 7 7 7 7 7 10 11 11 12 11 11 12 11 7 9 13 19 27 31 31 31 29 28 28 29 29 27 26 25 24 22 21 20 19 17 14 14 14 12 9 8 8 8 6 4 3 3 2 3 7 11 10 7 7 7 8 12 13 9 6 5 2 0 2 2 3 3 4 6 5 4 4
2 1 3 3 1 5 11 12 12 12 11 10 9 8 8 8 8 7 8 8 10 11 10 11 12 12 13 13 8 9 16 21 28 32 32 32 32 31 30 31 31 29 27 26 25 24 23 20 18 17 16 15 14 11 9 10 9 8 8 6 4 4 4 7 9 7 4 2 1 2 2 1 5 8 6 6 4 3 1 1 1 3 5 7 6 5 4
4 4 5 4 4 7 10 10 9 9 8 8 8 8 8 9 9 8 8 9 10 12 11 12 13 13 13 14 11 10 17 22 25 31 34 33 33 33 32 32 32 31 29 28 27 26 24 21 19 18 17 15 11 8 10 11 8 6 7 7 6 6 7 8 9 6 3 3 7 7 4 2 1 4 6 7 5 4 3 2 1 1 3 4 2 3 3
6 7 6 5 5 7 10 9 5 5 6 7 8 9 8 9 10 10 10 10 11 13 13 13 14 15 15 14 12 11 17 19 19 27 35 36 35 35 34 33 33 32 31 30 28 27 24 22 21 19 18 16 12 11 13 14 8 4 7 10 9 7 8 8 7 6 4 6 8 10 10 10 10 10 11 10 8 6 5 3 2 1 1 2 4 5 4
5 2 1 1 3 4 7 7 5 5 7 7 8 9 9 9 9 10 11 13 13 13 15 14 15 16 16 16 14 13 17 18 17 25 36 39 36 37 38 35 32 32 32 31 29 27 25 24 23 21 19 17 14 14 17 17 11 6 8 12 12 9 8 9 8 8 4 3 6 9 11 13 13 13 13 12 11 10 8 7 6 5 3 1 2 2 0
5 3 2 1 4 5 7 8 7 7 8 8 9 10 9 8 9 10 11 12 14 15 16 16 16 17 18 17 14 13 18 22 19 21 31 36 36 38 39 37 34 33 33 32 30 29 27 26 25 23 21 18 16 15 17 16 12 8 12 15 13 10 9 10 10 10 8 4 3 7 10 11 11 11 11 11 11 11 11 11 10 9 10 11 12 12 11
7 8 7 6 6 8 10 10 10 9 10 10 11 11 9 8 9 9 10 12 14 16 18 19 18 17 17 16 14 12 17 23 21 17 24 30 32 34 37 38 38 36 35 34 31 29 28 28 25 23 22 20 17 14 14 14 13 13 17 16 12 11 13 14 12 10 10 7 5 6 8 9 9 10 11 11 11 11 10 10 11 12 14 16 18 19 19
7 9 8 7 8 10 10 11 12 11 11 11 11 11 10 10 10 10 11 14 16 17 19 20 20 17 15 15 15 13 14 17 18 17 22 27 29 29 31 36 40 39 37 34 30 27 28 28 25 23 23 21 16 12 12 15 17 20 21 16 13 15 16 15 12 10 9 9 6 5 7 7 7 9 12 12 12 11 10 10 11 12 13 15 16 18 20
9 9 9 9 10 11 10 11 12 10 10 10 11 10 9 10 12 12 13 15 17 18 19 21 21 19 15 14 14 15 17 17 18 22 27 30 31 29 29 36 40 39 36 32 28 28 28 27 25 24 23 19 15 11 13 17 21 22 21 15 15 17 16 15 14 12 10 10 8 6 6 4 2 5 10 11 11 11 10 10 10 11 11 12 13 16 19
10 10 9 10 10 10 10 10 10 9 9 10 10 9 9 10 12 12 13 16 18 18 19 21 22 20 17 15 14 14 17 20 23 29 31 32 32 31 31 36 39 37 34 30 28 29 29 27 25 24 20 17 16 14 14 16 19 20 18 14 16 15 14 14 12 11 9 8 8 8 9 7 6 4 6 8 6 5 5 7 10 12 12 13 14 16 19
12 12 12 12 12 11 11 10 10 10 12 12 10 9 9 10 11 12 15 17 18 17 18 20 20 19 18 15 11 10 13 17 25 32 33 32 32 31 32 36 37 34 32 30 29 30 30 27 25 24 21 18 17 16 15 16 19 19 17 14 13 13 15 14 11 9 10 9 9 10 10 9 7 6 5 5 5 5 5 8 11 12 13 14 16 17 19
15 16 16 16 15 13 12 12 12 13 15 15 11 9 9 10 11 14 17 18 16 15 17 18 18 19 18 14 11 12 14 19 29 36 36 34 32 30 31 35 35 32 31 31 31 31 30 27 25 25 23 21 18 15 14 16 18 18 16 14 12 13 16 15 12 11 11 11 11 11 10 9 8 8 7 7 7 7 8 11 13 14 15 16 16 17 19
14 16 16 15 15 15 15 16 15 15 16 16 13 10 10 12 13 15 17 17 15 15 17 19 20 21 19 14 12 14 16 23 33 37 36 34 32 30 32 34 33 31 32 32 32 32 30 27 25 25 24 22 20 17 16 16 17 16 15 14 14 14 15 14 13 13 12 11 11 11 11 10 9 9 9 9 9 9 10 11 12 12 13 15 16 17 19
16 16 17 17 17 17 16 14 14 14 16 15 12 11 12 13 14 15 16 16 16 16 17 19 20 20 17 13 12 13 17 25 33 34 34 34 32 30 33 35 33 33 34 33 33 33 31 28 26 25 24 22 22 19 17 15 16 16 15 15 14 14 14 15 15 13 12 11 12 11 11 10 10 10 10 10 10 10 10 9 8 8 9 11 14 17 18
17 16 17 18 19 18 16 15 14 15 14 12 11 11 14 14 14 15 16 16 17 16 16 17 18 17 15 13 11 11 15 25 32 31 31 32 32 31 32 32 31 32 33 32 32 33 32 29 27 25 23 22 22 20 18 16 15 16 17 16 14 14 16 18 15 12 11 12 12 12 11 11 11 10 10 11 11 10 10 9 9 9 9 8 10 13 14
16 15 15 15 15 16 16 15 14 14 14 13 13 16 18 17 15 16 17 17 17 16 16 16 16 16 16 15 12 10 13 21 27 26 25 28 31 30 28 27 27 29 30 30 31 32 31 31 28 25 22 22 22 20 17 15 16 19 18 16 16 17 20 19 15 12 13 13 13 13 12 12 11 11 11 11 11 10 10 10 9 9 9 9 10 10 9
17 18 18 16 14 14 14 14 13 13 13 13 13 14 15 14 14 16 17 17 16 16 15 15 15 16 16 15 13 11 12 21 28 27 24 26 29 28 26 24 25 27 28 28 29 29 29 29 27 24 22 22 22 20 16 14 17 21 20 17 17 19 21 19 16 14 14 13 13 13 13 13 12 12 12 11 11 10 10 10 9 9 9 10 10 10 7
19 19 19 17 16 15 15 14 14 13 11 11 11 11 12 13 14 15 16 16 16 16 15 14 14 15 15 13 11 9 12 23 30 30 27 25 25 24 24 24 24 26 27 27 27 27 28 27 25 24 24 23 22 21 18 16 18 21 20 18 18 19 19 19 19 17 14 13 13 14 14 13 12 12 12 12 11 10 10 9 9 9 9 10 11 11 8
18 17 16 14 13 13 15 15 15 14 12 10 10 11 13 15 14 12 13 14 14 14 15 13 12 12 12 10 9 8 13 24 28 26 27 28 25 21 22 24 25 26 27 27 26 26 27 26 24 24 25 24 23 21 20 19 19 19 19 18 17 16 16 19 20 18 14 14 14 14 14 13 13 13 13 12 11 11 10 10 9 9 9 9 9 8 7
15 14 13 11 9 9 11 12 12 11 10 9 9 11 13 13 11 9 11 12 12 12 13 12 11 10 10 9 9 9 12 25 29 24 25 29 28 24 23 24 25 26 27 26 26 26 25 23 21 22 24 24 22 22 22 21 19 19 20 20 17 16 15 17 18 17 15 15 15 15 14 14 13 14 14 13 12 11 11 11 10 9 10 9 7 6 9
9 7 7 7 6 5 5 6 6 6 6 7 9 11 12 11 9 8 9 11 12 11 11 10 9 8 8 8 7 5 8 21 26 24 24 27 27 26 25 25 25 26 25 24 25 25 23 20 20 22 23 23 22 21 23 22 20 19 20 18 16 15 16 16 16 16 15 15 16 15 14 14 14 14 14 14 12 12 12 11 10 11 11 9 7 7 10
7 5 5 5 4 3 2 3 4 5 6 7 9 10 10 9 9 8 8 10 12 11 10 9 9 7 6 7 7 7 11 15 17 19 22 24 24 24 23 22 22 22 22 22 23 23 20 18 20 22 23 24 23 21 22 23 22 20 19 17 14 14 16 17 16 16 16 16 15 15 15 15 14 14 14 14 13 13 12 11 11 12 11 10 9 9 10
6 5 4 4 4 4 3 4 5 5 5 4 5 5 5 5 6 5 5 8 11 12 9 8 8 7 5 4 6 11 13 11 9 12 17 19 20 19 18 17 17 17 17 19 21 20 17 17 20 22 24 25 23 20 20 23 25 22 20 19 16 15 17 18 17 16 16 15 15 15 16 15 15 14 14 14 14 13 13 12 12 12 11 11 10 10 9
4 4 4 3 3 3 2 1 2 2 1 1 1 1 3 3 2 2 3 6 9 10 8 8 8 7 6 3 3 7 11 10 7 7 9 12 14 14 13 13 13 13 13 16 19 19 17 16 19 22 24 24 23 20 20 24 26 22 18 18 18 17 17 18 17 17 16 16 16 16 16 16 16 16 15 15 14 14 13 13 13 12 11 11 11 10 9
5 5 5 5 4 4 3 2 2 2 2 1 0 0 2 2 2 2 3 4 6 6 7 8 8 7 7 5 3 3 7 10 9 6 4 6 9 9 8 9 10 11 13 15 18 19 17 17 20 23 23 23 23 21 20 23 25 22 18 18 19 19 18 18 18 18 18 18 17 17 17 17 16 17 16 16 16 15 14 14 14 13 12 12 12 10 10
5 6 7 6 6 6 5 5 6 5 3 1 1 1 0 1 2 2 2 3 4 4 6 7 7 7 7 7 5 3 5 10 12 10 5 4 6 8 8 8 9 11 13 16 19 19 18 18 20 23 23 22 23 22 20 22 24 21 18 18 20 20 19 19 19 18 19 18 17 17 18 18 17 18 17 17 17 16 15 15 15 14 13 13 12 13 13
6 7 8 7 7 7 6 6 7 6 4 3 3 3 3 1 1 4 5 4 4 4 5 6 6 6 5 5 4 4 5 9 12 12 10 8 9 9 10 11 11 13 15 18 21 21 20 19 21 23 23 22 22 21 20 22 24 22 18 18 20 21 20 21 20 19 19 18 18 18 18 18 18 18 17 17 17 16 16 16 15 15 14 13 13 14 15
7 7 8 8 7 7 7 7 7 7 6 5 5 5 4 4 1 3 6 6 6 7 7 7 7 6 5 3 3 4 4 6 9 11 11 11 11 11 10 12 15 17 18 21 22 22 21 20 21 23 24 23 23 22 21 23 24 23 19 18 20 21 20 20 19 19 19 19 18 18 18 18 17 17 18 18 17 17 17 16 15 15 15 15 14 14 16
7 7 7 7 6 6 6 6 6 6 7 7 8 6 4 4 3 1 2 4 5 6 7 7 7 6 6 5 5 6 6 6 8 9 10 11 12 11 11 13 17 19 20 21 21 21 19 18 20 22 23 23 24 24 24 24 24 23 21 19 20 20 19 19 18 19 20 20 19 18 18 18 18 18 18 17 17 17 17 17 17 16 16 15 15 15 15
8 7 7 6 6 6 5 6 7 6 6 8 8 7 4 3 4 5 4 4 4 5 5 5 5 5 6 7 8 8 7 6 6 8 9 10 9 9 10 13 17 18 17 16 17 17 17 17 18 21 22 23 24 26 26 25 24 23 22 21 20 20 19 19 18 18 19 20 20 20 19 18 18 18 18 17 17 18 18 18 18 17 16 15 15 14 14
8 8 7 7 7 6 6 7 8 7 6 6 6 5 4 5 5 4 3 4 3 3 3 4 3 3 4 5 7 7 7 7 7 8 9 10 10 10 11 14 16 16 14 13 14 16 18 18 18 20 22 24 25 26 27 26 25 23 22 22 22 22 21 20 19 18 19 20 21 21 21 20 20 20 19 18 18 18 18 18 18 18 17 17 16 15 15
9 8 8 8 7 7 8 9 9 7 5 5 5 4 4 4 3 2 2 1 2 1 2 3 3 2 1 2 3 4 6 7 7 6 7 9 10 10 11 12 12 11 10 9 11 14 19 21 21 20 22 24 26 28 28 27 25 24 23 22 22 23 22 21 20 20 20 20 21 21 21 21 21 21 20 19 19 19 19 19 19 18 18 18 17 17 17
9 9 9 9 8 7 7 7 7 6 5 5 6 5 2 1 2 4 4 2 3 2 2 3 3 3 2 2 2 3 4 4 4 5 7 9 10 10 10 10 9 9 9 9 10 11 15 19 22 23 23 24 26 28 29 27 25 24 24 23 22 21 21 21 21 22 22 22 22 22 22 21 21 20 20 20 20 20 20 20 19 18 18 18 18 17 17
8 8 8 8 8 7 6 6 6 7 7 6 6 7 7 5 4 5 5 3 4 2 3 5 4 4 3 3 3 2 2 2 4 4 5 6 8 9 10 10 9 9 10 11 10 10 11 15 19 22 24 25 26 28 28 27 25 24 24 23 23 22 21 21 23 23 23 24 23 23 22 21 20 20 20 21 20 19 19 19 19 19 19 19 19 20 19
7 7 7 7 7 6 5 5 6 8 8 7 7 8 9 7 6 6 7 6 5 4 4 5 5 5 5 4 3 2 2 2 1 2 4 5 7 8 9 10 11 11 11 11 11 12 12 14 16 17 19 21 24 26 26 25 24 23 22 23 24 24 24 24 24 24 23 24 25 24 22 21 21 21 21 21 20 19 18 17 18 19 19 19 19 19 18
Wind_Direction
247 254 261 262 267 267 254 254 266 265 252 243 235 234 232 228 252 244 146 158 220 253 168 150 154 166 170 164 162 162 167 171 171 174 175 177 181 178 173 173 170 168 167 164 161 160 158 156 154 153 156 157 154 154 162 177 175 182 194 193 195 203 206 216 227 241 252 252 249 246 243 249 256 256 256 256 255 251 248 245 242 242 244 245 246 245 243
260 255 254 250 251 257 255 253 259 262 263 261 249 243 244 239 238 239 224 211 212 232 83 123 144 161 162 146 149 164 170 170 177 182 179 183 187 183 181 178 173 173 170 165 163 160 157 156 153 151 155 157 158 163 167 172 181 198 204 189 182 186 195 212 219 228 241 241 239 242 239 237 242 249 254 258 265 267 263 259 255 250 245 244 248 250 247
261 260 259 252 244 245 248 250 251 250 252 261 261 258 264 257 238 231 234 236 218 147 102 103 124 142 139 126 145 170 174 172 179 182 179 186 191 187 184 179 175 174 170 165 164 161 160 159 155 155 158 156 163 170 166 171 187 200 198 183 179 190 201 209 214 225 245 250 251 249 246 243 240 238 243 249 254 263 267 267 269 266 258 253 252 254 253
253 259 259 258 258 255 248 243 245 247 244 248 256 255 263 274 268 248 287 267 242 147 122 120 126 137 147 152 164 176 177 178 183 180 177 187 195 190 184 179 176 175 171 167 166 164 163 163 161 161 163 165 173 179 172 171 183 192 192 181 181 200 215 218 224 240 252 259 261 255 248 246 244 241 242 246 248 252 256 258 265 270 267 261 256 255 258
250 251 252 258 265 263 256 250 250 255 255 258 265 257 255 278 292 269 234 247 210 121 125 137 140 146 154 164 176 179 177 183 184 176 176 190 198 191 184 180 177 174 173 170 169 168 166 165 165 164 168 174 176 177 178 175 176 186 187 181 190 216 234 243 248 256 260 262 265 262 255 250 249 249 249 251 251 251 253 253 254 258 262 263 260 257 256
255 252 252 255 255 249 251 256 253 253 249 246 259 263 250 255 272 272 257 205 136 131 148 157 157 151 152 167 186 185 177 182 183 176 176 190 207 200 185 179 178 175 173 172 170 170 168 165 168 169 169 175 175 175 184 182 173 176 183 194 208 219 236 253 261 263 264 263 265 267 266 264 262 260 260 259 258 258 258 257 256 256 256 259 265 266 262
259 265 259 249 245 244 248 257 262 264 258 256 291 301 283 264 278 305 324 62 130 146 164 150 145 146 154 168 186 191 188 189 186 183 179 184 220 226 192 178 180 176 173 172 170 170 168 165 170 172 170 182 188 178 177 177 172 173 181 199 215 223 235 248 263 268 263 264 269 269 270 276 280 279 273 266 264 265 264 262 258 257 255 253 254 261 267
251 258 252 245 256 271 261 259 269 272 265 274 304 313 356 22 10 9 17 27 71 173 158 137 140 153 155 162 172 179 190 196 193 191 180 177 218 241 209 181 182 178 172 171 171 169 168 168 172 177 182 199 204 178 164 169 185 200 202 208 228 246 250 241 246 261 260 260 268 270 270 274 273 270 269 267 266 266 266 267 265 262 262 259 254 254 257
241 247 248 251 263 268 256 252 264 286 293 323 316 292 36 36 23 23 27 17 359 333 142 133 142 155 150 148 165 169 181 190 188 187 180 173 200 229 216 186 181 179 172 172 173 169 168 172 178 188 199 205 199 180 166 166 184 212 203 195 218 235 239 238 248 263 263 259 260 260 264 270 269 270 276 278 276 271 269 273 274 271 268 266 265 265 263
235 246 249 250 250 247 250 254 256 313 321 305 287 269 14 33 24 25 30 22 9 18 100 117 125 143 150 162 176 172 180 184 176 176 182 182 192 212 209 187 177 176 171 170 171 169 169 176 184 195 208 198 184 179 169 166 179 201 199 205 235 241 235 235 247 259 262 264 265 263 267 276 277 277 278 274 273 273 273 275 275 273 270 267 269 273 270
231 239 238 242 250 243 271 277 270 61 349 293 274 258 294 5 14 23 32 30 16 12 42 102 122 136 159 175 165 176 185 186 179 176 181 184 188 201 202 184 173 172 171 169 169 167 170 178 188 199 203 182 168 164 168 176 174 182 216 227 237 249 247 245 252 261 268 274 269 267 275 282 278 277 275 273 272 273 276 276 273 270 268 266 265 262 259
228 236 236 240 252 209 116 264 307 51 35 327 259 230 259 352 7 24 31 31 24 12 7 17 133 141 150 137 359 211 198 189 182 180 181 184 186 191 192 182 173 171 172 172 169 166 170 178 190 202 190 163 157 159 170 178 169 192 227 228 227 244 251 249 254 268 274 268 266 268 277 278 278 279 285 288 286 280 275 271 268 266 256 249 252 252 250
225 232 239 241 241 79 73 61 42 33 35 5 260 231 220 356 6 25 29 28 28 19 7 2 357 357 18 28 353 279 221 188 172 174 183 188 187 186 184 179 172 169 172 172 167 166 172 176 182 188 173 158 162 171 173 165 167 204 227 237 246 256 264 268 274 283 282 283 290 295 284 282 292 300 292 288 285 285 283 275 269 271 262 251 254 256 254
225 226 236 238 224 8 360 58 76 35 323 211 227 254 181 357 10 24 29 28 26 17 12 8 353 345 356 0 342 277 217 173 158 175 193 192 186 186 184 177 171 168 168 167 165 168 173 172 169 169 167 165 168 169 161 157 175 204 227 247 257 261 260 286 285 281 287 304 310 292 287 298 311 294 286 286 287 291 294 285 271 273 275 266 263 264 264
245 234 240 230 198 354 347 349 84 29 355 156 118 25 41 43 29 20 17 24 19 5 6 6 351 345 350 342 319 281 194 176 174 189 201 198 188 184 181 176 171 166 165 164 164 165 168 168 164 165 170 172 162 149 150 165 186 201 218 249 263 238 203 264 289 300 306 317 309 295 304 313 302 285 272 266 274 289 297 300 290 284 285 280 272 270 269
334 238 237 248 269 339 351 0 56 47 52 93 87 21 35 49 39 21 8 10 6 355 354 355 347 345 345 334 315 275 194 177 175 184 195 199 192 180 173 170 167 164 163 163 162 161 163 164 163 169 177 170 150 153 171 185 192 191 199 234 254 143 96 291 354 18 11 3 356 349 341 325 312 302 290 268 246 262 282 304 315 306 297 289 280 277 273
286 198 213 285 313 332 349 22 69 52 33 40 37 41 57 47 35 22 3 353 352 350 346 341 339 340 338 334 315 269 214 183 176 182 187 191 189 177 168 167 166 164 163 162 160 160 162 161 163 173 180 167 154 167 187 191 186 182 184 205 198 115 85 70 57 45 34 20 10 8 360 347 338 326 312 302 257 242 252 291 326 331 331 316 297 287 281
201 280 267 271 317 332 331 353 36 32 13 11 27 39 42 31 18 11 5 357 351 348 341 333 329 327 326 325 305 262 240 208 190 186 185 186 185 176 169 168 167 163 162 161 159 158 158 159 166 172 171 162 163 176 185 178 179 187 187 183 170 147 122 88 68 54 46 31 16 19 14 357 345 337 337 351 358 273 208 251 310 351 16 5 350 338 318
167 156 227 235 338 325 316 331 355 5 13 24 27 21 17 10 357 352 356 353 342 337 332 325 319 315 313 312 296 251 239 219 194 185 186 185 181 176 172 170 166 163 162 161 158 157 157 158 164 164 157 159 171 177 169 165 176 190 186 169 138 107 93 94 91 91 118 159 359 27 102 43 323 326 358 33 41 42 50 316 346 59 55 33 15 357 349
252 220 203 223 289 292 290 304 330 350 6 14 4 358 357 349 340 339 340 338 333 328 321 314 310 306 300 301 300 260 233 218 196 187 186 182 176 175 173 169 165 163 162 160 157 158 159 159 159 156 152 157 164 153 150 161 171 166 149 133 109 94 94 94 91 86 76 44 35 37 61 109 325 356 34 56 60 54 58 59 62 74 67 65 45 315 308
261 259 246 256 276 271 263 266 295 350 358 347 337 335 335 332 333 334 328 322 318 312 308 305 301 298 293 290 288 260 234 223 206 192 186 179 174 174 171 168 167 164 161 160 159 159 159 157 156 154 154 156 153 147 158 173 181 154 129 131 132 128 121 115 105 86 38 12 30 52 63 68 70 67 63 63 62 60 64 71 75 47 266 223 245 272 275
257 286 11 300 275 273 270 273 299 329 326 322 321 322 323 322 325 327 320 314 309 302 299 299 295 292 290 284 278 261 239 228 211 190 183 178 173 171 169 167 166 164 162 162 162 161 160 156 154 153 153 154 156 164 176 185 192 180 143 139 142 138 129 132 134 124 105 8 22 61 73 70 69 69 67 65 64 61 59 62 64 62 63 27 301 317 129
281 321 3 276 270 280 281 289 304 307 300 296 294 300 307 308 311 315 309 305 304 297 293 294 293 292 291 284 278 263 243 234 219 187 175 172 169 167 166 165 164 164 165 165 164 164 161 158 157 156 153 154 164 176 184 191 194 170 134 129 137 148 151 150 145 134 130 127 77 84 83 70 63 65 67 68 70 66 63 63 64 67 76 81 80 83 91
286 289 288 279 275 275 275 281 289 292 291 287 281 283 287 289 297 305 302 298 297 293 291 293 292 292 291 283 271 257 243 238 227 190 165 163 164 165 165 165 166 167 167 167 169 169 164 160 159 155 153 161 177 185 187 193 188 156 134 132 152 173 171 162 154 145 146 156 150 115 90 67 58 65 69 70 75 79 78 76 76 80 85 88 88 88 89
274 282 291 289 279 278 280 279 275 276 286 292 287 283 283 280 278 282 287 290 289 286 289 291 290 289 290 282 266 245 230 230 222 196 176 169 167 166 167 167 168 170 171 172 175 172 165 160 158 153 153 165 182 184 170 168 165 150 138 146 180 192 181 169 160 154 158 167 163 122 85 61 57 74 79 76 75 82 88 91 93 94 94 94 93 92 91
269 274 280 280 272 268 269 270 266 266 279 289 286 280 278 276 274 274 280 283 282 283 287 289 289 287 282 278 270 251 235 227 209 193 188 180 170 168 174 174 172 172 174 175 175 171 163 159 156 154 157 166 177 168 148 152 159 151 142 159 198 203 188 175 168 163 163 167 162 135 106 102 116 102 87 72 61 65 76 90 99 101 97 93 94 96 96
266 262 263 269 270 265 260 262 265 273 281 281 275 273 276 279 277 277 277 275 274 277 282 287 290 288 277 274 276 260 238 221 198 187 187 181 172 173 180 179 175 174 176 175 172 167 160 158 157 156 156 160 160 152 147 155 159 150 148 177 204 194 173 168 170 168 165 164 165 162 156 166 186 157 94 76 74 82 93 102 108 109 105 99 98 100 101
267 263 258 256 258 263 265 266 269 278 284 280 269 264 270 273 269 266 267 268 268 271 277 284 291 290 281 275 264 230 208 197 189 186 184 179 174 178 183 180 176 176 175 172 168 163 159 160 158 153 152 155 156 153 155 155 150 147 158 183 193 174 162 164 165 161 164 173 182 180 171 169 171 155 127 128 151 159 142 121 115 113 111 108 107 106 105
263 262 259 255 257 264 269 271 275 280 282 277 266 254 256 258 255 256 262 265 265 269 275 282 286 287 286 280 254 223 205 191 185 184 182 178 177 182 185 181 177 176 173 169 165 161 160 161 157 153 154 157 156 156 156 150 149 157 169 173 174 173 167 161 162 171 180 190 195 182 166 166 170 160 150 152 149 141 134 126 119 116 115 113 112 112 110
283 277 273 274 278 279 271 264 265 272 277 277 272 263 259 256 251 255 263 265 265 268 272 275 280 286 286 276 251 234 216 192 181 179 179 178 179 183 184 179 174 171 171 169 165 162 161 160 157 157 157 156 155 158 158 153 157 166 169 168 176 178 164 157 171 184 184 189 195 181 165 169 175 164 153 152 149 143 135 125 116 115 116 115 116 116 112
303 301 299 297 294 291 286 280 275 273 275 281 280 266 256 254 254 259 264 266 265 268 268 268 275 284 283 265 247 242 220 192 180 177 178 179 181 184 184 181 177 175 174 171 166 165 164 160 159 161 160 158 161 163 159 158 164 165 164 173 179 170 162 173 185 182 178 188 195 185 172 171 173 167 160 160 159 153 144 134 130 132 128 124 126 124 117
294 296 297 292 286 282 284 290 292 285 283 290 291 274 264 262 262 265 268 266 264 266 266 263 268 276 274 257 245 243 218 192 182 179 179 179 181 182 183 183 181 179 177 172 169 169 164 158 161 168 164 160 165 168 162 164 169 163 167 181 184 172 178 189 185 177 189 198 185 171 169 172 174 174 172 167 165 162 157 154 156 157 153 152 152 144 135
285 281 280 280 278 274 273 276 283 287 290 294 293 287 283 277 270 269 272 269 265 264 264 261 262 267 264 253 244 236 212 192 186 185 182 179 179 181 184 183 179 178 177 173 170 170 164 158 162 170 164 158 166 172 172 175 173 165 168 182 186 184 191 192 182 182 200 196 173 165 174 180 179 179 179 175 172 170 166 164 166 168 167 172 179 177 166
273 269 269 269 269 269 272 274 275 280 286 288 286 289 293 289 280 278 279 276 270 266 264 261 261 261 260 258 256 249 218 197 191 188 185 181 179 180 182 181 179 179 177 172 170 169 165 161 164 166 161 160 167 173 182 187 174 165 169 180 186 191 196 193 188 193 197 187 175 176 181 183 183 183 184 182 177 177 177 175 175 176 172 175 193 211 212
266 265 264 263 259 256 260 266 268 270 279 290 292 294 299 299 291 281 276 275 271 267 263 260 259 262 266 268 268 255 213 193 187 183 180 178 178 180 181 179 180 179 175 171 172 170 164 163 165 162 161 166 168 171 184 188 170 165 176 186 191 200 203 196 197 201 193 182 184 187 183 184 186 186 186 186 183 184 184 180 179 182 180 187 210 230 227
266 262 257 253 250 251 253 257 261 262 265 278 292 297 300 301 293 274 263 264 264 263 263 258 255 266 276 274 269 253 202 182 179 180 177 172 173 183 186 180 179 177 172 170 173 171 166 168 171 169 169 172 170 172 185 185 171 173 186 186 187 201 204 195 196 198 190 185 192 192 186 186 189 189 189 188 187 189 188 183 185 188 183 190 217 231 206
256 254 249 240 239 252 256 255 260 268 270 275 287 294 298 302 298 277 263 261 256 255 261 260 259 271 274 261 267 268 202 177 175 177 175 171 174 183 186 180 177 177 173 171 173 171 170 174 177 176 178 177 171 177 189 185 172 177 187 185 187 199 197 187 188 190 189 192 195 191 188 190 191 190 190 188 188 193 191 186 189 191 183 188 210 212 188
238 234 228 213 209 233 248 244 254 271 273 275 284 290 294 299 295 277 264 261 255 250 253 257 262 273 268 252 260 269 184 176 178 177 172 172 177 181 181 181 181 180 179 178 175 172 174 178 176 177 181 176 170 181 193 184 171 176 188 193 199 200 188 182 186 188 189 194 195 190 192 194 191 189 191 190 193 198 195 190 192 190 184 186 195 193 183
202 194 183 171 171 185 199 202 216 234 244 260 277 285 289 290 283 270 258 257 255 251 249 253 257 260 261 255 239 194 168 174 185 183 176 175 178 179 180 185 187 186 186 183 176 175 183 184 175 176 181 176 171 185 196 183 170 178 192 197 196 188 181 184 191 192 194 198 197 194 196 197 194 193 194 193 196 200 197 194 193 189 184 183 181 180 179
176 176 167 160 166 176 188 200 210 222 243 260 273 290 305 299 284 274 261 253 252 250 246 250 254 251 255 268 238 205 189 182 183 182 178 175 173 174 178 183 186 188 192 188 181 184 193 189 176 178 183 177 174 189 198 184 172 178 189 192 188 184 185 190 194 196 201 205 203 199 199 199 198 197 195 195 198 199 196 196 197 193 188 185 181 180 187
126 130 133 141 142 129 131 197 217 230 287 295 257 341 357 339 296 290 283 262 257 252 243 241 248 249 248 263 245 214 210 208 198 183 176 171 167 169 175 180 181 186 194 194 191 196 203 194 182 183 185 179 179 192 201 190 182 181 186 189 189 189 191 194 196 198 203 207 206 203 203 202 200 200 198 197 198 198 197 199 201 198 194 192 188 186 189
81 90 101 105 92 73 57 27 15 27 30 23 222 316 21 29 14 346 310 281 273 259 238 236 245 246 242 249 264 230 221 221 215 203 189 183 179 180 185 190 191 194 197 197 198 205 209 200 190 188 187 184 186 196 201 194 187 186 187 191 194 194 194 198 201 203 204 207 207 205 205 204 202 201 199 199 199 201 201 201 201 200 200 200 198 195 194
53 66 71 72 65 57 49 37 32 36 50 96 158 199 220 14 346 319 285 273 271 251 229 233 244 242 235 242 253 255 243 234 226 221 231 241 228 222 223 223 224 226 222 215 210 212 214 206 196 193 191 189 192 199 203 197 191 190 190 194 198 199 198 201 206 208 206 205 205 205 205 205 203 202 201 201 202 203 202 202 203 204 204 204 205 205 204
40 54 55 56 57 54 53 51 43 36 41 75 91 86 88 102 253 258 251 248 251 239 221 221 232 231 229 238 250 257 260 249 236 232 239 250 248 240 233 229 235 242 241 232 224 220 219 215 206 199 195 192 194 200 205 201 196 194 195 198 201 203 202 202 206 209 208 208 208 208 207 205 204 203 203 203 203 204 203 204 205 205 204 207 211 208 205
35 45 50 50 50 52 57 60 53 37 28 42 64 74 78 82 74 257 247 244 255 260 250 241 239 234 225 225 239 250 256 251 241 235 235 240 245 246 240 233 232 232 230 228 225 221 220 220 215 205 200 198 198 201 206 206 201 197 198 202 204 204 204 205 208 209 209 209 210 209 208 207 206 206 206 205 204 204 205 205 206 206 207 212 216 211 207
32 38 46 43 39 47 56 56 48 37 30 36 49 60 71 78 70 34 259 255 265 268 260 249 245 243 237 231 226 222 223 230 237 238 237 238 243 247 242 233 226 220 217 218 219 215 214 221 220 211 206 207 207 206 209 210 204 198 199 204 206 206 208 210 210 208 208 209 209 209 209 209 207 206 209 209 207 207 207 208 208 210 212 215 217 216 214
24 32 37 33 30 38 37 21 15 22 32 38 44 53 67 75 61 41 18 349 308 278 267 257 242 230 227 227 223 221 221 221 219 219 220 224 236 250 251 241 231 225 223 226 223 214 210 218 222 217 213 216 216 213 212 210 206 203 204 207 208 208 208 210 210 208 208 210 210 209 209 210 209 208 211 213 210 209 210 210 210 212 216 218 218 218 217
17 23 25 24 25 31 24 14 19 36 45 35 32 50 73 73 62 54 33 3 332 285 265 264 254 233 227 226 220 219 226 229 218 207 204 207 217 231 238 235 232 232 235 240 237 223 213 214 221 224 223 222 221 217 213 210 209 208 208 209 212 213 211 210 211 211 211 212 214 213 212 212 212 212 212 213 213 213 214 214 214 216 218 220 220 220 222
16 22 25 23 24 26 24 20 26 40 45 29 29 64 101 99 83 103 128 340 329 272 203 210 215 204 221 240 217 196 200 209 210 204 201 203 208 215 219 222 229 238 245 249 245 233 219 214 218 225 228 227 224 220 215 212 211 211 211 213 217 218 215 213 214 214 213 214 215 216 215 216 217 217 216 217 218 218 218 219 220 221 222 223 225 226 227
8 16 18 13 11 22 30 29 25 28 30 30 34 45 64 82 85 97 101 50 350 340 181 171 152 129 138 162 155 149 168 184 194 206 213 213 213 217 219 219 225 241 255 262 262 250 232 223 221 223 226 227 226 222 218 216 215 215 214 215 218 220 220 219 218 219 220 219 217 216 216 218 219 220 219 220 223 225 224 222 223 225 225 224 224 225 226
349 2 8 4 360 7 20 27 23 19 19 23 27 25 18 16 43 72 75 39 7 24 134 144 124 89 77 95 114 127 167 185 183 196 214 219 221 228 234 234 231 234 243 251 256 254 243 233 229 227 226 226 225 224 223 222 220 217 216 216 217 218 220 221 221 222 224 224 221 218 217 217 218 220 222 224 227 231 231 227 227 229 228 225 223 225 226
342 356 8 8 2 2 10 18 19 17 16 13 16 19 16 12 23 42 44 37 36 56 84 102 100 89 79 73 66 36 318 285 208 186 200 209 214 224 237 246 249 247 244 243 244 242 236 233 235 235 231 226 223 222 223 225 224 221 219 220 220 220 221 223 223 222 223 225 222 218 217 218 220 221 222 222 223 224 224 225 228 231 231 230 230 230 228